Showing default

SCATSAT 1, 41790

Orbit data source: Space-Track

SCATSAT 1, 41790 is a payload satellite owned by ISRO (IN) in SSO that was launched on Mon, 26 Sep 2016 UTC via a PSLV launch vehicle from the Sirharikota (SRI). Payloads include a variety of satellites, spacecraft, and rockets equipped with specific instruments for various scientific and technological missions. These include communications satellites like Starlink; space stations such as the ISS; scientific satellites like the Hubble; Earth observation satellites from companies like Planet Labs, Umbra, and HawkEye 360; GPS; miniature CubeSats for education and research; and military/defense satellites.

Loading next visibility...
SCATSAT 1 details
Identifier
41790, 2016-059H
Orbit
SSO
Last TLE update12 hours ago
Origin
Flag of INISRO (IN / IND)
ManufacturerISRO SAC/Banga
MissionOperational Civil Science
Bus & MotorSSB-2, Unknown motor
Mass370 kg wet, ~350 kg dry
Launch date (UTC)
2016-09-26 (8 years ago)
Launch vehicle
PSLV
Launch site
Sirharikota (SRI)
Object type
Payload
Rocket body
Debris
Shape & HBRBox + 2 Pan, 4 m
Radar Cross Section4.015 m², Large (>1 m²)

Expand to show TLE details & history

TLE from 12 hours ago
0 SCATSAT 1
1 41790U 16059H   24361.40171839  .00004015  00000-0  55925-3 0  9990
2 41790  98.1960  47.0483 0057136 176.1255 184.0408 14.77225312 22127
Epoch: 2024-12-26T09:38Z
Definitive object data (Epoch: 2024-12-26T09:38:28.468Z)
Latitude-0.00011°
Longitude167.04806°
Altitude681.103 km
Speed7.495 km/s
True Right ascension03h 08m 11s
True Declination0° 00' 00"
Sunlit
Object was in full shadow at TLE epoch
Visualization TLE readout
Latitude61.63065°
Longitude2.93535°
Altitude626.734 km
Speed7.563 km/s
Apparent Right ascension11h 34m 28s
Apparent Declination22° 40' 28"
Sunlit
Object is in daylight
Visualization observer readout
Local Sidereal Time20:56:09
Azimuth321.982° NNW
Elevation-17.343°
Doppler factor1
Orbital elements
Apogee altitude675.225 km
Perigee altitude595.083 km
Semi-major axis7,013.291 km
Eccentricity0.0057136
Inclination98.196°
RAAN47.0483°
Arg. of periapsis176.1255°
True anomaly183.99499°
Mean anomaly184.0408°
Eccentric anomaly184.01786°
Mean motion3.69539 °/min
BSTAR0.00055925
Orbital period97.42 mins
Loading maneuver chart data...
Loading historical data...
Loading historical data...
Loading historical data...
Loading historical data...
Loading historical data...
Loading historical data...
Loading historical data...

SCATSAT 1 Visibility forecast

Observer location: undefined°, undefined

Span
Click to sort rows by Start time (UTC) header in descending order
Start Az.
Max El. time (UTC)
Max El. Az.
Max El.
End time (UTC)
End Az.
4 mins2024-12-27 02:04:08.736Z93.809° ESE2024-12-27 02:06:08.736Z64.88° ENE15.411°2024-12-27 02:08:08.736Z35.624° NE
7 mins2024-12-27 03:39:08.736Z190.09° SSW2024-12-27 03:42:08.736Z257.747° W37.803°2024-12-27 03:46:08.736Z334.635° NNW
5 mins2024-12-27 15:30:08.736Z49.643° ENE2024-12-27 15:32:08.736Z89.378° E25.401°2024-12-27 15:35:08.736Z149.268° SSE
4 mins2024-12-27 17:07:08.736Z323.289° NNW2024-12-27 17:09:08.736Z283.223° WNW20.645°2024-12-27 17:11:08.736Z249.643° W
|